Temperature
16 16 16 16 16 16 16 16 16 15 15 15 15 15 15 15 14 14 14 14 14 14 14 14 14 14 14 14 13 13 13 13 13 13 12 12 12 12 12 12 12 12 12
16 16 16 16 16 16 16 16 15 15 15 15 15 15 15 15 15 14 14 14 14 14 14 14 14 14 14 14 13 13 13 13 13 13 12 12 12 12 12 12 12 11 11
16 16 16 16 16 16 16 16 15 15 15 15 15 15 15 15 15 14 14 14 14 14 14 14 14 14 14 14 14 13 13 13 13 13 12 12 12 12 12 12 11 11 11
16 16 16 16 16 16 16 15 15 15 15 15 15 15 15 15 15 15 15 14 14 14 14 14 14 14 14 14 13 13 13 13 13 13 12 12 12 12 11 11 11 11 11
16 16 16 16 16 16 15 15 15 15 15 15 15 15 15 15 15 14 14 14 14 14 14 14 14 14 13 13 13 13 13 13 13 12 12 12 12 12 12 11 11 11 11
16 16 16 16 15 15 15 15 15 15 15 15 15 15 15 14 14 14 14 14 14 14 14 14 14 14 13 13 13 13 13 13 13 12 12 12 12 12 12 11 11 11 11
16 16 15 15 15 15 15 15 15 14 14 14 14 14 14 14 14 14 14 14 14 14 14 14 14 13 13 13 13 13 13 12 12 12 12 12 12 12 11 11 11 11 11
16 15 15 15 15 15 15 14 14 14 14 14 14 14 14 14 14 14 14 14 14 13 13 13 13 13 13 13 13 13 13 12 12 12 12 12 12 11 11 11 11 11 11
15 15 15 15 15 15 14 14 14 14 14 14 14 14 14 14 13 13 13 13 13 13 13 13 13 13 13 13 13 13 12 12 12 12 12 11 11 11 11 11 11 11 11
15 15 15 14 14 14 14 14 14 14 14 14 13 13 13 13 13 13 13 13 13 13 13 13 13 12 12 12 12 12 12 12 12 12 11 11 11 11 11 11 11 10 10
15 15 14 14 14 14 14 14 14 13 13 13 13 13 13 13 13 13 13 13 13 13 13 13 12 12 12 12 12 12 12 11 11 11 11 11 11 11 11 10 10 10 10
15 14 14 14 14 14 14 13 13 13 13 13 13 13 13 13 13 12 12 12 12 12 12 12 12 12 12 12 11 11 11 11 11 11 11 11 10 10 10 10 10 10 10
14 14 14 14 14 14 13 13 13 13 13 13 13 12 12 12 12 12 12 12 12 12 12 12 12 11 11 11 11 11 11 11 10 10 10 10 10 10 10 10 10 9 9
14 14 14 14 13 13 13 13 13 13 12 12 12 12 12 12 12 12 12 12 11 12 12 11 11 11 11 11 11 11 10 10 10 10 10 10 9 9 9 9 9 9 9
14 14 13 13 13 13 13 13 13 12 12 12 12 12 12 12 12 12 11 11 11 11 11 11 11 11 11 11 11 10 10 10 10 10 10 9 9 9 9 9 9 9 9
13 13 13 13 12 12 12 12 12 12 12 12 12 12 12 12 11 11 11 11 11 11 11 10 10 10 10 10 10 10 10 9 9 9 9 9 9 9 9 8 8 8 8
13 13 13 12 12 12 12 12 11 11 11 11 11 11 11 11 11 11 11 11 10 10 10 10 10 10 10 10 9 9 9 9 9 9 9 8 8 8 8 8 8 8 8
13 13 12 12 12 12 11 11 11 11 11 11 11 11 11 11 11 11 10 10 10 10 10 10 9 9 9 9 9 9 9 8 8 8 8 8 8 8 8 8 8 7 7
12 12 12 12 12 11 11 11 11 11 10 10 10 10 10 10 10 10 10 10 10 10 9 9 9 9 9 9 8 8 8 8 8 8 8 8 7 7 7 7 7 7 7
12 12 11 11 11 11 11 11 10 10 10 10 10 10 10 10 10 9 9 9 9 9 9 9 9 9 9 8 8 8 8 8 8 7 7 7 7 7 7 7 7 6 6
11 11 11 11 11 11 11 10 10 10 10 10 10 10 10 10 10 9 9 9 9 9 9 9 9 9 8 8 8 8 8 7 7 7 7 7 7 7 6 6 6 6 6
11 11 11 11 11 10 10 10 10 10 10 10 10 10 9 9 9 9 9 9 9 9 9 9 8 8 8 8 8 8 7 7 7 7 7 6 6 6 6 6 6 6 6
11 11 10 10 10 10 10 10 10 10 10 10 9 9 9 9 9 9 9 9 9 8 8 8 8 8 8 8 8 7 7 7 7 7 6 6 6 6 6 5 5 5 5
10 10 10 10 10 9 9 9 9 9 9 9 9 9 9 9 9 9 9 8 8 8 8 8 8 8 8 7 7 7 7 7 7 6 6 6 6 5 5 5 5 5 5
10 10 10 10 9 9 9 9 9 9 9 9 9 8 8 9 8 8 8 8 8 8 8 8 8 8 7 7 7 7 7 7 6 6 6 6 5 5 5 5 5 5 4
9 9 9 9 9 9 9 9 8 8 8 8 8 8 8 8 8 8 8 8 8 8 7 7 7 7 7 7 7 7 6 6 6 6 6 5 5 5 5 4 4 4 4
Wind_Speed
4 3 3 2 3 3 3 4 4 3 3 3 3 3 3 2 2 2 1 1 1 0 0 2 2 2 2 2 2 2 2 3 3 1 1 0 1 1 1 2 1 1 1
4 4 4 3 2 2 3 3 3 3 3 3 3 3 3 2 3 3 3 2 2 2 1 1 1 2 2 2 3 3 3 3 4 3 0 0 1 1 1 1 1 1 1
4 4 3 3 2 2 2 2 3 3 2 2 3 3 3 3 3 3 3 2 2 2 3 3 2 3 2 2 3 3 3 3 3 3 1 0 1 0 1 1 1 1 0
4 4 4 4 3 3 2 2 2 2 3 3 3 3 3 3 3 3 3 3 2 1 2 2 3 4 4 4 3 3 3 4 3 3 2 0 0 1 1 0 1 1 1
4 4 4 4 3 2 2 2 2 2 2 2 2 2 2 2 3 3 3 3 3 1 0 1 3 4 6 5 5 5 5 4 3 3 2 1 0 0 1 1 1 1 1
5 4 4 3 3 3 3 2 2 1 1 1 1 2 2 2 3 5 4 3 3 2 1 1 1 3 4 6 7 8 8 6 5 4 3 2 3 3 1 1 2 0 2
4 4 4 4 4 3 3 2 2 2 1 1 1 2 2 2 4 5 6 4 3 2 2 2 1 1 3 3 4 5 5 7 8 7 5 5 4 5 4 2 2 3 3
3 4 4 4 4 4 3 3 3 2 2 2 2 2 2 2 4 5 5 4 3 2 3 3 3 3 3 4 4 3 2 2 5 5 6 6 5 5 5 5 4 2 1
3 4 5 5 5 4 5 5 3 2 2 2 2 3 3 3 4 4 5 3 2 2 2 3 4 4 5 6 5 4 2 2 2 5 5 4 4 5 6 4 2 2 1
5 5 4 5 5 6 6 5 3 3 3 2 2 2 3 3 3 4 5 3 2 2 1 2 4 5 6 7 5 5 4 3 2 2 1 1 1 2 5 4 4 3 2
5 4 4 5 5 5 5 4 3 3 2 2 2 2 3 3 4 5 5 3 3 3 2 2 3 5 6 7 6 5 6 4 3 2 1 1 0 0 1 2 3 4 4
4 4 4 4 5 4 4 4 4 4 3 3 2 2 2 3 3 4 5 6 4 3 3 3 3 5 5 6 5 6 6 4 2 2 1 1 1 1 1 1 2 3 4
4 4 4 4 4 4 5 5 4 4 4 3 3 3 3 2 3 5 5 6 6 3 3 3 4 4 4 3 5 5 4 3 3 2 2 3 3 2 1 1 1 1 0
4 3 3 3 3 3 4 5 5 5 5 4 4 4 3 3 3 2 2 3 4 3 2 2 3 3 2 2 2 1 2 3 3 3 2 2 1 1 1 1 1 0 0
4 3 3 3 3 3 4 4 6 6 7 7 6 5 5 5 6 6 5 4 3 3 3 2 2 2 1 1 0 0 0 1 2 2 2 1 1 1 2 1 1 1 1
4 4 3 3 3 3 3 2 4 4 6 7 6 6 6 7 6 7 8 7 7 8 5 2 2 2 2 2 2 1 1 2 2 2 2 2 2 2 2 1 1 2 3
6 5 3 3 3 3 3 3 3 2 3 5 6 6 5 6 6 7 7 7 7 8 4 3 3 3 3 2 2 2 2 2 2 2 2 2 2 2 2 2 2 2 3
5 5 5 4 4 4 4 4 4 4 3 3 4 5 5 5 6 7 7 6 3 3 3 4 4 4 3 3 3 2 2 1 1 2 2 2 2 2 2 2 3 4 4
5 4 4 4 3 3 3 3 3 4 4 3 2 3 4 4 4 6 7 4 4 4 4 4 4 4 3 4 3 3 2 2 2 2 2 2 2 2 3 3 3 4 4
4 6 5 4 3 3 3 3 4 4 4 4 4 4 3 3 2 3 4 3 4 4 4 4 4 4 4 4 3 3 2 2 2 2 2 2 2 3 3 4 3 4 4
4 5 6 4 4 4 4 4 4 4 4 4 4 4 6 5 5 5 5 4 4 4 4 4 4 3 3 3 3 3 3 3 2 2 2 2 2 2 3 3 3 4 4
5 5 5 5 4 4 4 4 4 5 5 5 3 4 6 4 4 4 4 4 4 4 4 4 4 4 4 4 4 4 3 3 2 2 2 2 2 2 2 2 3 3 4
4 5 4 4 4 4 4 4 4 5 5 5 4 4 4 4 4 4 4 4 3 3 4 4 4 3 3 4 5 5 4 4 4 4 3 2 2 2 2 2 3 3 4
4 5 5 5 4 4 4 4 4 4 5 5 4 4 4 4 4 4 4 3 3 3 4 4 4 5 5 4 4 5 5 5 5 5 4 3 2 1 1 1 2 3 2
4 4 5 5 5 5 5 5 4 4 4 4 4 4 4 4 3 4 3 4 4 4 4 4 4 5 5 5 5 5 5 6 6 5 5 3 2 1 1 1 1 1 1
4 4 4 4 4 4 4 4 4 4 4 3 3 3 3 3 3 3 4 4 4 4 4 4 4 5 5 5 5 6 6 6 6 6 5 4 2 1 1 0 0 0 1
Wind_Direction
182 182 173 190 187 173 178 192 192 183 172 168 169 167 166 166 156 144 165 146 139 140 159 151 165 156 145 146 138 131 137 137 145 252 288 277 137 151 137 153 140 124 110
188 179 182 182 173 177 187 193 178 175 183 179 169 166 171 167 161 163 180 172 175 190 209 163 175 157 147 149 142 146 150 149 146 164 209 34 200 205 186 183 190 196 202
174 171 175 177 172 183 190 186 171 170 179 171 160 172 185 182 177 186 178 173 187 206 204 190 196 160 157 150 146 151 147 136 129 142 159 68 356 351 71 23 22 346 274
173 172 181 194 194 192 181 173 161 158 165 179 177 184 191 184 182 186 173 169 176 201 203 200 193 175 177 169 159 160 141 123 117 119 124 101 334 332 84 101 346 337 323
176 183 198 195 187 173 163 166 155 152 175 174 158 167 167 173 184 173 166 167 166 163 186 214 203 188 184 179 172 169 154 142 136 132 142 122 267 357 235 214 210 293 330
183 199 198 182 175 172 173 166 151 144 148 124 147 167 174 191 178 171 162 156 154 156 173 244 221 190 184 182 178 173 168 164 169 166 173 183 222 221 214 185 184 137 304
190 196 194 187 185 188 182 162 171 177 168 141 158 156 174 198 181 169 166 155 159 179 189 192 183 157 146 145 150 154 169 176 173 172 177 201 207 209 185 189 194 185 216
189 201 199 190 191 188 173 178 184 178 177 171 174 178 175 206 185 172 168 158 161 195 206 200 190 190 175 153 142 139 167 200 190 181 191 204 204 197 185 187 189 184 257
194 208 206 197 192 186 188 192 187 173 185 201 186 179 183 211 196 177 157 149 166 215 223 206 194 193 187 161 149 159 182 237 195 187 191 196 203 194 168 138 144 143 244
212 216 210 200 196 197 198 193 185 180 193 194 199 205 193 206 206 189 168 158 179 222 226 218 206 199 192 177 171 173 194 226 195 158 164 198 171 165 168 169 182 178 190
214 209 209 208 203 203 198 190 181 179 180 187 199 229 221 215 215 210 189 180 189 200 212 227 219 198 194 191 185 190 199 192 180 175 183 228 344 115 163 176 176 180 187
208 208 216 213 211 207 192 193 185 176 179 193 200 239 260 245 224 224 209 198 190 191 211 219 209 193 192 189 190 190 181 159 144 146 168 230 238 243 242 195 192 194 198
202 212 219 219 213 201 192 190 185 181 187 200 202 222 247 251 236 224 216 203 193 195 209 199 184 174 169 175 178 172 160 150 150 168 204 229 231 224 179 96 40 86 8
194 210 210 210 221 209 197 193 192 193 196 203 210 223 236 241 233 218 207 196 188 185 175 140 129 121 119 120 117 136 147 162 165 189 215 235 236 197 205 196 212 223 340
194 200 205 208 217 210 209 210 206 209 202 200 209 212 212 229 231 202 188 198 196 178 135 99 96 96 113 105 66 94 156 169 186 202 199 208 214 225 247 236 221 199 212
194 202 202 204 210 207 206 247 247 226 219 214 215 215 225 227 220 208 203 199 183 158 138 151 168 175 184 189 190 204 210 210 212 205 201 205 217 226 240 234 211 212 233
198 201 198 197 201 204 204 206 231 270 241 220 219 217 215 209 205 195 188 181 176 159 160 183 186 188 194 191 190 195 212 227 212 196 208 213 216 225 228 232 226 228 244
199 198 193 197 199 203 208 211 208 206 221 250 237 220 212 203 195 183 169 149 163 177 194 193 197 196 193 192 199 207 205 205 200 210 218 221 219 223 230 239 234 228 238
198 198 193 194 201 205 207 207 207 206 210 223 234 228 215 199 186 180 163 172 189 200 204 202 200 197 195 194 199 200 197 204 211 212 221 223 221 217 233 243 249 247 238
204 199 189 186 192 200 203 206 209 208 209 212 217 219 186 156 175 187 189 192 193 201 200 201 203 201 194 190 189 185 190 207 216 220 224 228 228 221 231 244 248 251 249
200 201 196 190 195 199 205 208 212 210 213 217 220 214 187 190 197 198 198 202 203 204 203 202 201 196 193 184 183 184 191 207 213 217 221 229 233 238 243 246 253 254 256
196 197 198 198 202 204 209 209 210 212 215 217 219 213 201 201 200 199 204 211 210 204 195 186 188 182 181 180 178 181 190 204 213 215 224 231 233 239 249 257 260 259 253
195 195 198 202 206 207 210 214 213 213 215 214 209 202 199 206 209 206 205 203 191 184 177 175 174 172 169 173 175 178 190 206 203 197 206 217 222 230 240 256 261 261 257
195 198 200 204 205 206 211 216 216 218 215 210 205 203 203 206 207 203 198 186 178 177 173 172 175 177 176 176 177 183 189 189 182 179 183 192 204 221 241 267 277 269 259
200 207 207 203 205 208 211 213 212 210 209 209 208 207 205 201 201 195 185 174 169 170 171 168 163 168 173 176 175 180 186 180 173 164 160 163 172 178 203 266 297 304 271
206 207 205 203 204 203 203 205 205 206 207 207 203 203 198 194 191 185 172 163 163 165 166 167 166 166 166 172 178 175 173 170 168 164 152 152 159 167 150 177 98 66 74
Height
1542 1543 1543 1544 1544 1545 1545 1545 1545 1545 1545 1545 1545 1545 1545 1545 1545 1544 1544 1544 1544 1544 1544 1543 1543 1543 1544 1544 1544 1544 1544 1544 1544 1544 1544 1544 1544 1544 1543 1543 1542 1541 1540
1540 1541 1542 1543 1543 1543 1544 1544 1544 1544 1544 1544 1544 1544 1544 1544 1544 1544 1543 1543 1543 1543 1543 1543 1543 1543 1543 1543 1543 1543 1543 1543 1543 1543 1543 1543 1543 1543 1543 1542 1542 1541 1540
1539 1540 1540 1541 1541 1542 1542 1542 1543 1543 1543 1543 1543 1543 1543 1543 1543 1543 1542 1542 1542 1542 1542 1542 1542 1542 1542 1542 1542 1542 1542 1542 1543 1542 1542 1542 1542 1542 1542 1542 1541 1540 1540
1537 1538 1538 1539 1539 1540 1540 1541 1541 1541 1541 1541 1541 1541 1541 1541 1541 1541 1541 1541 1541 1541 1541 1541 1541 1541 1541 1541 1541 1541 1541 1541 1541 1541 1541 1541 1541 1541 1541 1541 1540 1540 1539
1535 1536 1536 1537 1537 1538 1538 1539 1539 1539 1539 1539 1539 1539 1539 1539 1539 1539 1539 1539 1539 1539 1539 1539 1539 1539 1539 1539 1540 1540 1540 1540 1540 1540 1540 1540 1540 1540 1540 1539 1539 1539 1538
1532 1533 1534 1535 1535 1535 1536 1536 1536 1537 1537 1537 1537 1537 1537 1537 1537 1537 1537 1537 1537 1537 1537 1537 1537 1537 1537 1537 1538 1538 1539 1539 1539 1539 1539 1539 1539 1539 1538 1538 1538 1537 1536
1529 1530 1531 1532 1533 1533 1533 1534 1534 1534 1534 1534 1534 1534 1534 1534 1534 1535 1535 1535 1534 1534 1534 1534 1534 1534 1535 1535 1535 1536 1536 1536 1537 1537 1537 1537 1537 1537 1537 1536 1536 1535 1535
1527 1527 1528 1529 1529 1530 1530 1530 1531 1531 1531 1531 1531 1531 1531 1531 1532 1532 1532 1532 1532 1532 1532 1532 1532 1532 1532 1532 1533 1533 1533 1534 1534 1534 1534 1535 1535 1535 1535 1535 1534 1533 1533
1524 1524 1525 1525 1526 1526 1527 1527 1528 1528 1528 1528 1528 1528 1528 1528 1529 1529 1529 1529 1529 1529 1529 1529 1529 1529 1530 1530 1530 1530 1530 1531 1531 1532 1532 1532 1532 1533 1533 1532 1532 1531 1530
1520 1521 1521 1522 1522 1523 1523 1523 1524 1524 1524 1525 1524 1525 1525 1525 1525 1526 1526 1526 1525 1525 1526 1526 1526 1526 1527 1527 1527 1527 1527 1528 1528 1529 1529 1529 1529 1529 1529 1529 1529 1528 1527
1517 1518 1518 1519 1519 1519 1520 1520 1520 1521 1521 1521 1521 1521 1521 1521 1522 1522 1522 1522 1522 1522 1522 1522 1523 1523 1524 1524 1524 1524 1524 1525 1525 1525 1525 1526 1526 1526 1526 1526 1526 1526 1525
1514 1514 1514 1515 1515 1516 1516 1516 1517 1517 1517 1516 1517 1517 1517 1517 1518 1518 1518 1518 1519 1518 1518 1519 1519 1520 1520 1521 1521 1521 1522 1522 1522 1522 1522 1522 1522 1523 1523 1523 1523 1522 1522
1509 1509 1510 1510 1511 1511 1512 1512 1512 1513 1513 1512 1512 1512 1512 1513 1513 1514 1514 1514 1515 1515 1515 1515 1516 1516 1517 1517 1518 1518 1518 1518 1518 1518 1518 1518 1519 1519 1519 1519 1519 1518 1518
1505 1505 1505 1506 1506 1507 1507 1507 1508 1508 1508 1508 1508 1508 1508 1508 1509 1509 1510 1510 1510 1511 1511 1512 1512 1513 1513 1513 1514 1514 1514 1515 1515 1514 1514 1514 1515 1515 1515 1515 1515 1514 1514
1501 1501 1501 1501 1501 1502 1502 1503 1503 1503 1504 1504 1504 1504 1504 1504 1505 1506 1506 1506 1507 1507 1507 1508 1508 1508 1509 1509 1510 1510 1510 1511 1511 1511 1511 1510 1511 1511 1511 1511 1511 1510 1509
1496 1496 1497 1497 1497 1497 1497 1498 1498 1500 1500 1501 1501 1501 1500 1501 1501 1501 1502 1503 1503 1504 1504 1504 1504 1505 1505 1506 1506 1506 1507 1507 1507 1507 1507 1507 1507 1507 1507 1507 1506 1506 1505
1491 1492 1492 1492 1493 1493 1493 1493 1493 1494 1495 1496 1496 1496 1496 1496 1497 1497 1498 1498 1499 1500 1500 1500 1501 1501 1502 1502 1503 1503 1503 1503 1503 1503 1503 1503 1503 1503 1503 1502 1502 1501 1500
1487 1487 1487 1488 1488 1488 1489 1489 1489 1489 1489 1490 1491 1491 1492 1492 1493 1493 1494 1494 1494 1495 1495 1496 1497 1498 1498 1499 1499 1499 1499 1499 1500 1500 1499 1499 1499 1499 1498 1498 1497 1497 1496
1482 1482 1483 1484 1484 1484 1484 1485 1485 1485 1485 1485 1486 1487 1488 1488 1489 1489 1489 1489 1489 1490 1491 1492 1493 1494 1494 1495 1495 1496 1496 1496 1496 1496 1496 1495 1495 1495 1494 1493 1493 1492 1492
1477 1478 1479 1479 1479 1479 1480 1480 1480 1481 1481 1481 1481 1482 1483 1483 1483 1484 1484 1485 1485 1486 1487 1488 1489 1490 1491 1491 1491 1492 1492 1492 1492 1492 1492 1491 1491 1491 1490 1489 1488 1488 1487
1472 1473 1474 1474 1475 1475 1475 1475 1476 1476 1476 1476 1477 1478 1478 1479 1479 1480 1480 1481 1482 1483 1483 1484 1485 1486 1487 1487 1487 1488 1488 1488 1488 1488 1488 1487 1487 1486 1486 1485 1484 1483 1482
1467 1468 1469 1469 1470 1470 1470 1471 1471 1471 1472 1472 1473 1474 1474 1475 1475 1476 1477 1477 1478 1479 1480 1481 1482 1483 1483 1483 1484 1484 1484 1484 1484 1483 1483 1483 1482 1482 1481 1480 1479 1478 1477
1462 1463 1464 1464 1465 1466 1466 1467 1467 1467 1467 1468 1469 1469 1470 1470 1471 1472 1472 1474 1475 1476 1477 1477 1478 1478 1479 1480 1480 1480 1480 1480 1480 1479 1479 1478 1478 1477 1477 1476 1475 1473 1473
1457 1458 1458 1459 1460 1460 1461 1462 1462 1462 1463 1464 1464 1465 1465 1466 1467 1467 1469 1470 1471 1472 1473 1473 1474 1474 1475 1476 1476 1476 1476 1476 1476 1475 1475 1474 1474 1473 1472 1471 1470 1469 1468
1452 1453 1453 1454 1455 1456 1456 1457 1458 1458 1459 1459 1460 1461 1461 1462 1463 1463 1464 1465 1466 1467 1468 1469 1470 1470 1471 1471 1472 1472 1472 1472 1472 1472 1471 1471 1470 1469 1469 1468 1467 1465 1464
1447 1448 1448 1449 1450 1451 1452 1452 1453 1454 1455 1455 1456 1457 1457 1458 1459 1459 1460 1461 1462 1463 1464 1465 1465 1466 1467 1467 1468 1468 1468 1468 1468 1468 1468 1467 1467 1466 1465 1464 1463 1463 1461